Sigfox identifier Datetime Temperature Humidity SNR
003B77A1 2019-02-20 14:05:22 20.8 23 23.2
003B77A1 2019-02-20 13:33:55 20.8 23 23.2
003B77A1 2019-02-20 13:02:27 20.8 24 22.3
003B77A1 2019-02-20 12:31:00 20.8 25 21.2
003B77A1 2019-02-20 11:59:32 20.8 25 21.3
003B77A1 2019-02-20 11:28:04 20.8 26 19.9
003B77A1 2019-02-20 10:56:39 20.8 27 20
003B77A1 2019-02-20 10:25:09 20.7 27 20.1
003B77A1 2019-02-20 09:53:00 20.7 27 20
003B77A1 2019-02-20 09:21:32 20.7 27 19.8
003B77A1 2019-02-20 08:50:04 20.7 27 17.5
003B77A1 2019-02-20 08:18:35 20.7 27 17.3
003B77A1 2019-02-20 07:47:08 20.7 27 17.3
003B77A1 2019-02-20 07:15:41 20.7 27 17.2
003B77A1 2019-02-20 06:44:14 20.7 27 17.1
003B77A1 2019-02-20 06:12:46 20.7 27 17
003B77A1 2019-02-20 05:41:17 20.7 27 16.9
003B77A1 2019-02-20 05:09:49 20.8 27 17
003B77A1 2019-02-20 04:38:21 20.8 27 17
003B77A1 2019-02-20 04:06:52 20.8 27 16.8
003B77A1 2019-02-20 03:35:22 20.8 27 17
003B77A1 2019-02-20 03:03:54 20.8 27 17.2
003B77A1 2019-02-20 02:32:25 20.8 27 17
003B77A1 2019-02-20 02:00:58 20.8 27 16.8
003B77A1 2019-02-20 01:29:31 20.8 27 16.4
003B77A1 2019-02-20 00:58:04 20.8 27 16.5
003B77A1 2019-02-20 00:26:36 20.8 27 16.4
003B77A1 2019-02-19 23:55:08 20.8 27 16.4
003B77A1 2019-02-19 23:23:41 20.9 27 16.2
003B77A1 2019-02-19 22:52:12 20.9 27 16
003B77A1 2019-02-19 22:20:44 20.9 27 18.9
003B77A1 2019-02-19 21:49:15 20.9 27 19
003B77A1 2019-02-19 21:17:47 20.9 27 18.9
003B77A1 2019-02-19 20:46:19 20.9 27 19.1
003B77A1 2019-02-19 20:14:51 20.9 27 19.6
003B77A1 2019-02-19 19:43:23 20.9 27 19.8
003B77A1 2019-02-19 19:11:55 21 27 20.1
003B77A1 2019-02-19 18:40:27 21 27 20.2
003B77A1 2019-02-19 18:08:58 21 27 20.4
003B77A1 2019-02-19 17:37:29 21 27 20.8
003B77A1 2019-02-19 17:06:01 21 28 20.8
003B77A1 2019-02-19 16:34:34 21 28 21
003B77A1 2019-02-19 16:03:11 21 27 21.1
003B77A1 2019-02-19 15:31:41 21 27 21.1
003B77A1 2019-02-19 15:00:14 21 27 21.1
003B77A1 2019-02-19 14:28:48 21 27 21.3
003B77A1 2019-02-19 13:57:22 21 27 21.3
003B77A1 2019-02-19 13:25:51 21 27 21.5
003B77A1 2019-02-19 12:54:24 20.9 27 21.7
003B77A1 2019-02-19 12:23:01 21 27 21.8
003B77A1 2019-02-19 11:51:31 20.9 27 22
003B77A1 2019-02-19 11:20:03 20.9 26 22.2
003B77A1 2019-02-19 10:48:38 20.9 26 22.3
003B77A1 2019-02-19 10:17:08 20.9 26 22.3
003B77A1 2019-02-19 09:45:40 20.8 26 22.3
003B77A1 2019-02-19 09:14:13 20.8 26 21.5
003B77A1 2019-02-19 08:42:45 20.8 25 21.5
003B77A1 2019-02-19 08:11:17 20.8 25 21.7
003B77A1 2019-02-19 07:39:08 20.8 25 21.8
003B77A1 2019-02-19 07:07:41 20.8 25 21.8
003B77A1 2019-02-19 06:36:15 20.8 25 21.8
003B77A1 2019-02-19 06:04:48 20.8 25 21.6
003B77A1 2019-02-19 05:33:21 20.8 24 21.7
003B77A1 2019-02-19 05:01:54 20.8 24 21.8
003B77A1 2019-02-19 04:30:26 20.8 24 22.5
003B77A1 2019-02-19 03:59:02 20.8 24 23.4
003B77A1 2019-02-19 03:27:30 20.8 24 23.4
003B77A1 2019-02-19 02:56:03 20.8 24 23.3
003B77A1 2019-02-19 02:24:36 20.8 24 23.3
003B77A1 2019-02-19 01:53:09 20.8 24 23.2
003B77A1 2019-02-19 01:21:44 20.8 24 23.1
003B77A1 2019-02-19 00:50:14 20.8 23 23.2
003B77A1 2019-02-19 00:18:49 20.8 23 23.2
003B77A1 2019-02-18 23:47:20 20.8 23 23.3
003B77A1 2019-02-18 23:15:54 20.8 23 23.4
003B77A1 2019-02-18 22:44:27 20.8 23 23.5
003B77A1 2019-02-18 22:13:00 20.8 23 23.6
003B77A1 2019-02-18 21:41:34 20.8 23 23.7
003B77A1 2019-02-18 21:10:09 20.8 22 23.8
003B77A1 2019-02-18 20:38:44 20.8 22 24
003B77A1 2019-02-18 20:07:21 20.9 22 23.9
003B77A1 2019-02-18 19:35:53 20.8 22 24
003B77A1 2019-02-18 19:04:27 20.8 22 24
003B77A1 2019-02-18 18:33:01 20.8 22 24
003B77A1 2019-02-18 18:01:34 20.9 22 24
003B77A1 2019-02-18 17:30:07 20.9 22 24.1
003B77A1 2019-02-18 16:58:42 20.9 22 24.1
003B77A1 2019-02-18 16:27:14 20.9 22 24.1
003B77A1 2019-02-18 15:55:47 20.9 21 24.1
003B77A1 2019-02-18 15:24:20 21 21 23.6
003B77A1 2019-02-18 14:52:54 21 21 23.7
003B77A1 2019-02-18 14:21:27 21 21 23.9
003B77A1 2019-02-18 13:50:00 21 20 24
003B77A1 2019-02-18 13:18:35 21.1 20 24.1
003B77A1 2019-02-18 12:47:09 21.2 19 24.2
003B77A1 2019-02-18 12:15:44 21.3 19 24.3
003B77A1 2019-02-18 11:44:17 21.2 19 24.3
003B77A1 2019-02-18 11:12:51 21.2 19 24.4
003B77A1 2019-02-18 10:41:25 21.2 19 24.3
003B77A1 2019-02-18 10:09:59 21.1 19 24.3
003B77A1 2019-02-18 09:38:32 21.1 19 24.3
003B77A1 2019-02-18 09:07:04 21.2 18 24.4
003B77A1 2019-02-18 08:35:36 21.1 18 24.4
003B77A1 2019-02-18 08:04:09 21 18 24.4
003B77A1 2019-02-18 07:32:42 20.9 18 24.5
003B77A1 2019-02-18 07:01:15 20.8 18 24.4
003B77A1 2019-02-18 06:29:48 20.7 18 24.4
003B77A1 2019-02-18 05:58:21 20.8 18 24.9
003B77A1 2019-02-18 05:26:12 20.8 18 25
003B77A1 2019-02-18 04:54:45 20.8 18 25
003B77A1 2019-02-18 04:23:18 20.7 18 25
003B77A1 2019-02-18 03:51:49 20.7 18 25
003B77A1 2019-02-18 03:20:22 20.7 18 25.1
003B77A1 2019-02-18 02:48:55 20.7 18 24.7
003B77A1 2019-02-18 02:17:27 20.7 19 24.6
003B77A1 2019-02-18 01:45:59 20.8 18 24.7
003B77A1 2019-02-18 01:14:31 20.8 18 24.7
003B77A1 2019-02-18 00:43:05 20.8 19 24.7
003B77A1 2019-02-18 00:11:38 20.9 19 24.7
003B77A1 2019-02-17 23:40:11 20.9 19 24.7
003B77A1 2019-02-17 23:08:44 20.8 19 24.6
003B77A1 2019-02-17 22:37:16 20.9 19 24.6
003B77A1 2019-02-17 22:05:50 20.9 19 24.5
003B77A1 2019-02-17 21:34:23 20.8 19 24.5
003B77A1 2019-02-17 21:02:57 20.7 19 24.6
003B77A1 2019-02-17 20:31:31 20.7 19 24.6
003B77A1 2019-02-17 20:00:05 20.8 19 24.5
003B77A1 2019-02-17 19:28:38 20.9 19 24.6
003B77A1 2019-02-17 18:57:12 20.9 20 24.6
003B77A1 2019-02-17 18:25:45 20.8 20 24.6
003B77A1 2019-02-17 17:54:18 20.8 19 24.7
003B77A1 2019-02-17 17:22:51 20.8 19 24.7
003B77A1 2019-02-17 16:51:26 20.9 19 24.3
003B77A1 2019-02-17 16:19:59 20.8 19 24.3
003B77A1 2019-02-17 15:48:31 20.8 20 24.2
003B77A1 2019-02-17 15:17:04 20.8 20 24.2
003B77A1 2019-02-17 14:45:37 20.8 20 24.3
003B77A1 2019-02-17 14:14:09 20.9 20 24.2
003B77A1 2019-02-17 13:42:41 20.9 20 24.3
003B77A1 2019-02-17 13:11:12 21 20 24.3
003B77A1 2019-02-17 12:39:44 21 20 24.3
003B77A1 2019-02-17 12:08:15 21 20 24.2
003B77A1 2019-02-17 11:36:46 21 20 24.3
003B77A1 2019-02-17 11:05:18 20.9 20 24.3
003B77A1 2019-02-17 10:33:49 20.9 20 24.3
003B77A1 2019-02-17 10:02:19 20.9 21 24.3
003B77A1 2019-02-17 09:30:51 20.9 21 24.3
003B77A1 2019-02-17 08:59:21 20.8 21 24.4
003B77A1 2019-02-17 08:27:52 20.9 21 24.6
003B77A1 2019-02-17 07:56:22 20.9 21 24.5
003B77A1 2019-02-17 07:24:52 20.9 21 24.5
003B77A1 2019-02-17 06:53:23 20.9 21 24.4
003B77A1 2019-02-17 06:21:53 21 21 24.3
003B77A1 2019-02-17 05:50:22 21 22 24.3
003B77A1 2019-02-17 05:18:53 20.9 22 24.3
003B77A1 2019-02-17 04:47:23 21 22 24.3
003B77A1 2019-02-17 04:15:53 21 22 24.3
003B77A1 2019-02-17 03:44:24 21 23 24.2
003B77A1 2019-02-17 03:12:13 21 23 24.2
003B77A1 2019-02-17 02:40:46 21 23 24.1
003B77A1 2019-02-17 02:09:17 21 23 24.2
003B77A1 2019-02-17 01:37:47 21 24 24.1
003B77A1 2019-02-17 01:06:16 21 24 24.1
003B77A1 2019-02-17 00:34:47 20.9 24 24.1
003B77A1 2019-02-17 00:03:18 20.9 24 24.2
003B77A1 2019-02-16 23:31:48 20.9 24 24.2
003B77A1 2019-02-16 23:00:19 21 24 24.3
003B77A1 2019-02-16 22:28:52 21 24 24.3
003B77A1 2019-02-16 21:57:25 21.1 24 24.2
003B77A1 2019-02-16 21:25:57 21 25 24.3
003B77A1 2019-02-16 20:54:31 21 25 24.3
003B77A1 2019-02-16 20:23:04 21 25 24.3
003B77A1 2019-02-16 19:51:36 21 25 24.3
003B77A1 2019-02-16 19:20:09 20.9 25 24.6
003B77A1 2019-02-16 18:48:42 20.9 25 24.5
003B77A1 2019-02-16 18:17:15 20.8 25 24.6
003B77A1 2019-02-16 17:45:47 20.9 25 24.7
003B77A1 2019-02-16 17:14:19 21 25 24.7
003B77A1 2019-02-16 16:42:52 21.1 25 24.6
003B77A1 2019-02-16 16:11:25 21.1 25 24.5
003B77A1 2019-02-16 15:39:58 21.1 25 24.5
003B77A1 2019-02-16 15:08:31 21.1 25 24.4
003B77A1 2019-02-16 14:37:05 21.1 25 24.5
003B77A1 2019-02-16 14:05:38 21.1 25 24.5
003B77A1 2019-02-16 13:34:12 21 25 24.5
003B77A1 2019-02-16 13:02:45 21.1 25 24.6
003B77A1 2019-02-16 12:31:16 21 25 24.6
003B77A1 2019-02-16 11:59:49 21.1 25 24.7
003B77A1 2019-02-16 11:28:21 21 25 24.7
003B77A1 2019-02-16 10:56:53 21 25 24.6
003B77A1 2019-02-16 10:25:26 20.9 25 24.6
003B77A1 2019-02-16 09:53:58 21 25 24.6
003B77A1 2019-02-16 09:22:29 21 25 24.6
003B77A1 2019-02-16 08:51:01 21 25 24.6
003B77A1 2019-02-16 08:19:34 21 25 24.6
003B77A1 2019-02-16 07:48:08 21 25 24.5
003B77A1 2019-02-16 07:16:41 21 25 24.6
003B77A1 2019-02-16 06:45:15 21 26 24.5
003B77A1 2019-02-16 06:13:49 21 26 24
003B77A1 2019-02-16 05:42:21 21 26 24
003B77A1 2019-02-16 05:10:53 21 25 24
003B77A1 2019-02-16 04:39:26 21 26 24
003B77A1 2019-02-16 04:08:00 20.9 25 24.5
003B77A1 2019-02-16 03:36:33 21 26 24.5
003B77A1 2019-02-16 03:05:07 20.9 25 24.6
003B77A1 2019-02-16 02:33:40 21 25 24.6
003B77A1 2019-02-16 02:02:12 21 25 24.5
003B77A1 2019-02-16 01:30:45 21 26 24.5
003B77A1 2019-02-16 00:58:38 21.1 26 24.4
003B77A1 2019-02-16 00:27:11 21 26 24.5
003B77A1 2019-02-15 23:55:44 21 26 24.4
003B77A1 2019-02-15 23:24:16 21.1 26 24.3
003B77A1 2019-02-15 22:52:48 21 26 24.1
003B77A1 2019-02-15 22:21:21 21.1 26 24
003B77A1 2019-02-15 21:49:54 21.2 26 24
003B77A1 2019-02-15 21:18:27 21.2 26 23.9
003B77A1 2019-02-15 20:47:01 21.3 25 24
003B77A1 2019-02-15 20:15:35 21.4 25 24
003B77A1 2019-02-15 19:44:08 21.5 25 24
003B77A1 2019-02-15 19:12:42 21.6 25 24.1
003B77A1 2019-02-15 18:41:15 21.7 25 24.2
003B77A1 2019-02-15 18:09:49 21.7 25 24.2
003B77A1 2019-02-15 17:38:23 21.7 25 24.1
003B77A1 2019-02-15 17:06:56 21.7 25 24.1
003B77A1 2019-02-15 16:35:29 21.6 24 24.1
003B77A1 2019-02-15 16:04:01 21.5 24 24.6
003B77A1 2019-02-15 15:32:33 21.6 24 24.6
003B77A1 2019-02-15 15:01:07 21.6 23 24.1
003B77A1 2019-02-15 14:29:40 21.6 23 24.2
003B77A1 2019-02-15 13:58:13 21.6 24 24.4
003B77A1 2019-02-15 13:26:46 21.6 24 24.5
003B77A1 2019-02-15 12:55:20 21.6 24 24.6
003B77A1 2019-02-15 12:23:55 21.5 24 24.7
003B77A1 2019-02-15 11:52:28 21.5 24 24.7
003B77A1 2019-02-15 11:21:02 21.5 24 24.7
003B77A1 2019-02-15 10:49:36 21.5 24 24.8
003B77A1 2019-02-15 10:18:09 21.5 25 24.9
003B77A1 2019-02-15 09:46:43 21.4 25 25
003B77A1 2019-02-15 09:15:16 21.4 25 25.1
003B77A1 2019-02-15 08:43:49 21.4 25 25.2
003B77A1 2019-02-15 08:12:22 21.3 25 25.2
003B77A1 2019-02-15 07:40:55 21.2 25 25.1
003B77A1 2019-02-15 07:09:28 21.2 25 25.1
003B77A1 2019-02-15 06:38:02 21.2 25 25.1
003B77A1 2019-02-15 06:06:36 21.2 25 25
003B77A1 2019-02-15 05:35:09 21.2 25 24.9
003B77A1 2019-02-15 05:03:42 21.2 25 24.8
003B77A1 2019-02-15 04:32:16 21.2 26 24.8
003B77A1 2019-02-15 04:00:52 21.2 26 24.6
003B77A1 2019-02-15 03:29:26 21.2 26 24.5
003B77A1 2019-02-15 02:58:00 21.2 26 23.9
003B77A1 2019-02-15 02:26:35 21.2 26 23.8
003B77A1 2019-02-15 01:55:10 21.2 26 23.7
003B77A1 2019-02-15 01:23:44 21.2 26 23.5
003B77A1 2019-02-15 00:52:17 21.2 26 23.3
003B77A1 2019-02-15 00:20:51 21.3 25 23
003B77A1 2019-02-14 23:49:25 21.2 25 22.7
003B77A1 2019-02-14 23:18:00 21.2 25 22.4
003B77A1 2019-02-14 22:45:52 21.3 25 22.4
003B77A1 2019-02-14 22:14:25 21.2 25 22.1
003B77A1 2019-02-14 21:42:58 21.2 25 21.9
003B77A1 2019-02-14 21:11:31 21.3 25 21.6
003B77A1 2019-02-14 20:40:04 21.3 24 21.5
003B77A1 2019-02-14 20:08:38 21.5 24 21.3
003B77A1 2019-02-14 19:37:11 21.6 24 21
003B77A1 2019-02-14 19:05:45 21.7 24 20.8
003B77A1 2019-02-14 18:34:18 21.8 24 20.6
003B77A1 2019-02-14 18:02:52 21.8 24 20.5
003B77A1 2019-02-14 17:31:25 21.8 24 20.1
003B77A1 2019-02-14 16:59:57 21.8 24 21.3
003B77A1 2019-02-14 16:28:32 21.9 24 21.2
003B77A1 2019-02-14 15:57:05 21.9 24 21.3
003B77A1 2019-02-14 15:25:40 21.9 23 21.3
003B77A1 2019-02-14 14:54:16 21.8 24 21.5
003B77A1 2019-02-14 14:22:47 21.8 23 21.6
003B77A1 2019-02-14 13:51:21 21.8 22 22.7
003B77A1 2019-02-14 13:19:54 21.7 23 22.7
003B77A1 2019-02-14 12:48:28 21.6 22 22.6
003B77A1 2019-02-14 12:17:01 21.5 22 22.8
003B77A1 2019-02-14 11:45:36 21.4 22 22.9
003B77A1 2019-02-14 11:14:11 21.3 23 23
003B77A1 2019-02-14 10:42:45 21.2 23 23
003B77A1 2019-02-14 10:11:19 21.1 24 23.1
003B77A1 2019-02-14 09:39:54 21 23 23.1
003B77A1 2019-02-14 09:08:28 21 23 23.2
003B77A1 2019-02-14 08:37:02 20.9 23 23.2
003B77A1 2019-02-14 08:05:36 20.9 24 23.2
003B77A1 2019-02-14 07:34:09 20.9 24 23.2
003B77A1 2019-02-14 07:02:42 21 25 23.2
003B77A1 2019-02-14 06:31:16 20.9 25 23.1
003B77A1 2019-02-14 05:59:49 21 25 23
003B77A1 2019-02-14 05:28:22 21 25 23
003B77A1 2019-02-14 04:56:54 21 25 22.9
003B77A1 2019-02-14 04:25:26 21 25 22.8
003B77A1 2019-02-14 03:54:00 21 25 21.8
003B77A1 2019-02-14 03:22:34 21 25 21.9
003B77A1 2019-02-14 02:51:07 21 25 21.9
003B77A1 2019-02-14 02:19:40 21 25 22
003B77A1 2019-02-14 01:48:12 21 25 21.8
003B77A1 2019-02-14 01:16:44 21 25 21.7
003B77A1 2019-02-14 00:45:18 21.1 24 20.4
003B77A1 2019-02-14 00:13:51 21.1 24 20.3
003B77A1 2019-02-13 23:42:24 21.1 24 20.1
003B77A1 2019-02-13 23:10:58 21.1 24 19.9
003B77A1 2019-02-13 22:39:31 21.2 24 19.6
003B77A1 2019-02-13 22:08:06 21.2 24 19.4
003B77A1 2019-02-13 21:36:40 21.3 24 19.4
003B77A1 2019-02-13 21:05:15 21.3 24 19.2
003B77A1 2019-02-13 20:33:06 21.4 24 19.1
003B77A1 2019-02-13 20:01:40 21.5 25 20.6
003B77A1 2019-02-13 19:30:13 21.5 25 20.6
003B77A1 2019-02-13 18:58:47 21.6 25 20.5
003B77A1 2019-02-13 18:27:21 21.6 25 20.4
003B77A1 2019-02-13 17:55:56 21.7 26 20.4
003B77A1 2019-02-13 17:24:30 21.7 26 20.5
003B77A1 2019-02-13 16:53:04 21.6 26 20.6
003B77A1 2019-02-13 16:21:38 21.5 26 20.6
003B77A1 2019-02-13 15:50:13 21.4 25 20.7
003B77A1 2019-02-13 15:18:50 21.4 25 20.8
003B77A1 2019-02-13 14:47:23 21.2 25 20.9
003B77A1 2019-02-13 14:15:57 21.1 24 20.8
003B77A1 2019-02-13 13:44:32 21.2 24 20.9
003B77A1 2019-02-13 13:13:05 21.3 24 20.8
003B77A1 2019-02-13 12:41:38 21.3 25 20.8
003B77A1 2019-02-13 12:10:12 21.4 24 20.9
003B77A1 2019-02-13 11:38:46 21.3 25 21
003B77A1 2019-02-13 11:07:21 21.1 25 21
003B77A1 2019-02-13 10:35:53 20.9 24 21.1
003B77A1 2019-02-13 10:04:28 20.9 23 21
003B77A1 2019-02-13 09:33:01 21 23 21
003B77A1 2019-02-13 09:01:33 20.9 22 21
003B77A1 2019-02-13 08:30:07 20.9 21 21
003B77A1 2019-02-13 07:58:40 20.9 20 21
003B77A1 2019-02-13 07:27:13 20.9 19 21
003B77A1 2019-02-13 06:55:46 20.9 18 19.5
003B77A1 2019-02-13 06:24:20 20.9 18 19.4
003B77A1 2019-02-13 05:52:53 20.9 18 19.4
003B77A1 2019-02-13 05:21:26 20.9 18 19.2
003B77A1 2019-02-13 04:50:01 21 18 19.1
003B77A1 2019-02-13 04:18:35 21 18 18.9
003B77A1 2019-02-13 03:47:08 21 18 18.9
003B77A1 2019-02-13 03:15:41 21 18 19
003B77A1 2019-02-13 02:44:14 21 18 18.9
003B77A1 2019-02-13 02:12:47 21 18 18.9
003B77A1 2019-02-13 01:41:21 21.1 18 19
003B77A1 2019-02-13 01:09:55 21.1 18 18.9
003B77A1 2019-02-13 00:38:31 21.1 18 19
003B77A1 2019-02-13 00:07:07 21.1 19 19.1
003B77A1 2019-02-12 23:35:42 21.1 19 18.9
003B77A1 2019-02-12 23:04:16 21.1 18 18.9
003B77A1 2019-02-12 22:32:50 21.2 17 18.9
003B77A1 2019-02-12 22:01:24 21.2 18 19
003B77A1 2019-02-12 21:29:57 21.3 18 18.9
003B77A1 2019-02-12 20:58:30 21.3 20 18.7
003B77A1 2019-02-12 20:27:04 21.4 20 18.9
003B77A1 2019-02-12 19:55:39 21.4 20 19.1
003B77A1 2019-02-12 19:24:11 21.4 20 18.9
003B77A1 2019-02-12 18:52:43 21.3 19 19
003B77A1 2019-02-12 18:20:34 21.2 18 19.2
003B77A1 2019-02-12 17:49:09 21.3 18 19.2
003B77A1 2019-02-12 17:17:44 21.4 18 20.8
003B77A1 2019-02-12 16:46:19 21.5 18 20.9
003B77A1 2019-02-12 16:14:53 21.6 18 21
003B77A1 2019-02-12 15:43:28 21.6 18 21.1
003B77A1 2019-02-12 15:12:02 21.6 18 21.1
003B77A1 2019-02-12 14:40:37 21.5 18 21.1
003B77A1 2019-02-12 14:09:11 21.3 18 21
003B77A1 2019-02-12 13:37:46 21.3 18 21
003B77A1 2019-02-12 13:06:20 21.4 17 20.9
003B77A1 2019-02-12 12:34:55 21.4 19 20.8
003B77A1 2019-02-12 12:03:29 21.4 19 20.9
003B77A1 2019-02-12 11:32:06 21.4 19 20.7
003B77A1 2019-02-12 11:00:39 21.4 19 20.6
003B77A1 2019-02-12 10:29:13 21.3 20 20.7
003B77A1 2019-02-12 09:57:47 21.2 20 20.7
003B77A1 2019-02-12 09:26:22 21.2 22 20.6
003B77A1 2019-02-12 08:54:55 21.1 23 20.5
003B77A1 2019-02-12 08:23:29 21 23 20.5
003B77A1 2019-02-12 07:52:02 21 23 20.6
003B77A1 2019-02-12 07:20:37 21 25 20.4
003B77A1 2019-02-12 06:49:10 21 25 21.6
003B77A1 2019-02-12 06:17:46 21 25 21.7
003B77A1 2019-02-12 05:46:19 21 26 21.7
003B77A1 2019-02-12 05:14:53 21 26 21.7
003B77A1 2019-02-12 04:43:26 21 26 21.7
003B77A1 2019-02-12 04:11:59 21 26 20.4
003B77A1 2019-02-12 03:40:32 21 26 20.4
003B77A1 2019-02-12 03:09:04 21.1 26 20.5
003B77A1 2019-02-12 02:37:38 21.1 26 20.5
003B77A1 2019-02-12 02:06:11 21.1 26 20.5
003B77A1 2019-02-12 01:34:44 21.1 26 20.6
003B77A1 2019-02-12 01:03:16 21.1 26 20.8
003B77A1 2019-02-12 00:31:49 21.1 26 21
003B77A1 2019-02-12 00:00:23 21.2 26 21.2
003B77A1 2019-02-11 23:28:57 21.2 26 21.4
003B77A1 2019-02-11 22:57:30 21.2 26 21.5
003B77A1 2019-02-11 22:26:03 21.3 26 21.8
003B77A1 2019-02-11 21:54:34 21.4 26 22
003B77A1 2019-02-11 21:23:08 21.5 27 22.3
003B77A1 2019-02-11 20:51:41 21.6 27 22.6
003B77A1 2019-02-11 20:20:14 21.6 27 23
003B77A1 2019-02-11 19:48:46 21.8 26 23.6
003B77A1 2019-02-11 19:17:18 21.9 26 24.2
003B77A1 2019-02-11 18:45:51 22 26 25
003B77A1 2019-02-11 18:14:22 22.2 26 26.2
003B77A1 2019-02-11 17:42:54 22.4 27 20.9
003B77A1 2019-02-11 17:11:26 22.4 27 16.6
003B77A1 2019-02-11 16:39:57 22.6 35 0